Time,TemperatureF,DewpointF,PressureIn,WindDirection,WindDirectionDegrees,WindSpeedMPH,WindSpeedGustMPH,Humidity,HourlyPrecipIn,Conditions,Clouds,dailyrainin,SoftwareType,DateUTC
2013-03-09 00:00:00,42.7,37.0,29.85,SSE,163,9.0,12.0,80,0.00,,,0.00,Wunderground v.1.15,2013-03-09 06:00:00,
2013-03-09 00:10:00,42.6,36.9,29.85,SE,136,9.0,9.0,80,0.00,,,0.00,Wunderground v.1.15,2013-03-09 06:10:00,
2013-03-09 00:20:00,42.5,37.1,29.84,South,172,8.0,8.0,81,0.00,,,0.00,Wunderground v.1.15,2013-03-09 06:20:00,
2013-03-09 00:30:00,42.6,37.2,29.84,South,171,8.0,8.0,81,0.00,,,0.00,Wunderground v.1.15,2013-03-09 06:30:00,
2013-03-09 00:40:00,42.5,37.1,29.83,SSE,157,6.0,16.0,81,0.00,,,0.00,Wunderground v.1.15,2013-03-09 06:40:00,
2013-03-09 00:50:00,42.4,37.0,29.83,SSE,149,6.0,16.0,81,0.00,,,0.00,Wunderground v.1.15,2013-03-09 06:50:00,
2013-03-09 01:00:00,42.4,37.0,29.82,SSE,159,6.0,16.0,81,0.00,,,0.00,Wunderground v.1.15,2013-03-09 07:00:00,
2013-03-09 01:10:00,42.5,37.4,29.82,SSE,148,7.0,16.0,82,0.00,,,0.00,Wunderground v.1.15,2013-03-09 07:10:00,
2013-03-09 01:20:00,42.7,37.6,29.82,SE,140,6.0,6.0,82,0.00,,,0.00,Wunderground v.1.15,2013-03-09 07:20:00,
2013-03-09 01:30:00,42.6,37.8,29.82,SSE,161,4.0,16.0,83,0.00,,,0.00,Wunderground v.1.15,2013-03-09 07:30:00,
2013-03-09 01:40:00,42.7,37.9,29.82,SE,134,5.0,5.0,83,0.00,,,0.00,Wunderground v.1.15,2013-03-09 07:40:00,
2013-03-09 01:45:00,42.6,37.8,29.82,SE,144,4.0,16.0,83,0.00,,,0.00,Wunderground v.1.15,2013-03-09 07:45:00,
2013-03-09 01:55:00,42.6,38.1,29.82,SSE,149,5.0,6.0,84,0.00,,,0.00,Wunderground v.1.15,2013-03-09 07:55:00,
2013-03-09 02:05:00,42.5,38.0,29.81,SSE,155,5.0,16.0,84,0.00,,,0.00,Wunderground v.1.15,2013-03-09 08:05:00,
2013-03-09 02:10:00,42.5,38.0,29.81,SE,136,5.0,5.0,84,0.00,,,0.00,Wunderground v.1.15,2013-03-09 08:10:00,
2013-03-09 02:20:00,42.4,38.2,29.81,SE,136,4.0,16.0,85,0.00,,,0.00,Wunderground v.1.15,2013-03-09 08:20:00,
2013-03-09 02:30:00,42.4,38.2,29.80,SE,138,4.0,16.0,85,0.00,,,0.00,Wunderground v.1.15,2013-03-09 08:30:00,
2013-03-09 02:40:00,42.3,38.1,29.80,SE,138,5.0,5.0,85,0.00,,,0.00,Wunderground v.1.15,2013-03-09 08:40:00,
2013-03-09 02:50:00,42.0,38.1,29.78,SE,136,4.0,4.0,86,0.00,,,0.00,Wunderground v.1.15,2013-03-09 08:50:00,
2013-03-09 03:00:00,41.9,38.0,29.78,SSE,148,3.0,3.0,86,0.00,,,0.00,Wunderground v.1.15,2013-03-09 09:00:00,
2013-03-09 03:10:00,41.6,38.0,29.78,SSE,150,4.0,16.0,87,0.00,,,0.00,Wunderground v.1.15,2013-03-09 09:10:00,
2013-03-09 03:20:00,41.4,37.8,29.78,SSE,150,3.0,16.0,87,0.00,,,0.00,Wunderground v.1.15,2013-03-09 09:20:00,
2013-03-09 03:30:00,41.3,37.7,29.77,SSE,150,2.0,2.0,87,0.00,,,0.01,Wunderground v.1.15,2013-03-09 09:30:00,
2013-03-09 03:40:00,41.5,38.2,29.75,SSE,150,2.0,16.0,88,0.08,,,0.02,Wunderground v.1.15,2013-03-09 09:40:00,
2013-03-09 03:50:00,41.5,38.2,29.75,SSE,150,2.0,2.0,88,0.04,,,0.02,Wunderground v.1.15,2013-03-09 09:50:00,
2013-03-09 04:00:00,41.6,38.6,29.75,SSE,150,2.0,16.0,89,0.00,,,0.03,Wunderground v.1.15,2013-03-09 10:00:00,
2013-03-09 04:05:00,41.8,38.8,29.75,SSE,150,3.0,16.0,89,0.00,,,0.03,Wunderground v.1.15,2013-03-09 10:05:00,
2013-03-09 04:15:00,41.8,38.8,29.74,SSE,150,3.0,16.0,89,0.05,,,0.04,Wunderground v.1.15,2013-03-09 10:15:00,
2013-03-09 04:20:00,41.8,38.8,29.74,SSE,150,3.0,16.0,89,0.05,,,0.04,Wunderground v.1.15,2013-03-09 10:20:00,
2013-03-09 04:30:00,41.8,38.8,29.73,SSE,149,3.0,3.0,89,0.04,,,0.05,Wunderground v.1.15,2013-03-09 10:30:00,
2013-03-09 04:40:00,42.0,39.3,29.72,SSE,149,2.0,16.0,90,0.07,,,0.06,Wunderground v.1.15,2013-03-09 10:40:00,
2013-03-09 04:50:00,42.4,39.7,29.72,SSE,149,3.0,3.0,90,0.04,,,0.06,Wunderground v.1.15,2013-03-09 10:50:00,
2013-03-09 04:55:00,42.5,39.8,29.72,SSE,149,2.0,16.0,90,0.00,,,0.06,Wunderground v.1.15,2013-03-09 10:55:00,
2013-03-09 05:05:00,42.8,40.1,29.71,SSE,149,3.0,16.0,90,0.00,,,0.06,Wunderground v.1.15,2013-03-09 11:05:00,
2013-03-09 05:10:00,42.8,40.1,29.71,SSE,149,3.0,16.0,90,0.00,,,0.06,Wunderground v.1.15,2013-03-09 11:10:00,
2013-03-09 05:20:00,42.7,40.0,29.70,SSE,149,4.0,4.0,90,0.00,,,0.06,Wunderground v.1.15,2013-03-09 11:20:00,
2013-03-09 05:30:00,42.7,40.0,29.70,SSE,149,4.0,16.0,90,0.00,,,0.06,Wunderground v.1.15,2013-03-09 11:30:00,
2013-03-09 05:40:00,43.2,40.5,29.70,SSE,149,4.0,16.0,90,0.00,,,0.06,Wunderground v.1.15,2013-03-09 11:40:00,
2013-03-09 05:45:00,43.3,40.6,29.70,SSE,149,4.0,16.0,90,0.00,,,0.06,Wunderground v.1.15,2013-03-09 11:45:00,
2013-03-09 05:55:00,43.6,40.9,29.70,SSE,149,3.0,16.0,90,0.00,,,0.06,Wunderground v.1.15,2013-03-09 11:55:00,
2013-03-09 06:00:00,43.9,41.2,29.70,SSE,149,3.0,5.0,90,0.00,,,0.06,Wunderground v.1.15,2013-03-09 12:00:00,
2013-03-09 06:10:00,44.3,41.8,29.69,SSE,156,5.0,5.0,91,0.00,,,0.06,Wunderground v.1.15,2013-03-09 12:10:00,
2013-03-09 06:20:00,44.6,42.1,29.69,SSE,157,4.0,4.0,91,0.00,,,0.06,Wunderground v.1.15,2013-03-09 12:20:00,
2013-03-09 06:30:00,44.9,42.4,29.69,SSE,157,3.0,3.0,91,0.00,,,0.06,Wunderground v.1.15,2013-03-09 12:30:00,
2013-03-09 06:40:00,44.9,42.4,29.69,SSE,157,3.0,3.0,91,0.00,,,0.06,Wunderground v.1.15,2013-03-09 12:40:00,
2013-03-09 06:45:00,45.0,42.5,29.68,SSE,157,3.0,4.0,91,0.00,,,0.06,Wunderground v.1.15,2013-03-09 12:45:00,
2013-03-09 06:55:00,45.7,43.2,29.68,SSE,157,5.0,7.0,91,0.00,,,0.06,Wunderground v.1.15,2013-03-09 12:55:00,
2013-03-09 07:05:00,45.9,43.4,29.67,SSE,168,5.0,7.0,91,0.00,,,0.06,Wunderground v.1.15,2013-03-09 13:05:00,
2013-03-09 07:10:00,45.9,43.4,29.68,South,177,4.0,7.0,91,0.00,,,0.06,Wunderground v.1.15,2013-03-09 13:10:00,
2013-03-09 07:20:00,46.0,43.5,29.67,South,169,5.0,5.0,91,0.00,,,0.06,Wunderground v.1.15,2013-03-09 13:20:00,
2013-03-09 07:30:00,45.9,43.4,29.67,SSE,157,4.0,7.0,91,0.00,,,0.06,Wunderground v.1.15,2013-03-09 13:30:00,
2013-03-09 07:35:00,45.9,43.4,29.67,SSE,157,4.0,7.0,91,0.00,,,0.06,Wunderground v.1.15,2013-03-09 13:35:00,
2013-03-09 07:45:00,45.8,43.3,29.67,SSE,157,2.0,7.0,91,0.00,,,0.06,Wunderground v.1.15,2013-03-09 13:45:00,
2013-03-09 07:50:00,45.7,43.2,29.67,SSE,157,1.0,1.0,91,0.00,,,0.06,Wunderground v.1.15,2013-03-09 13:50:00,
2013-03-09 08:00:00,45.5,43.0,29.67,SSE,157,0.0,7.0,91,0.00,,,0.07,Wunderground v.1.15,2013-03-09 14:00:00,
2013-03-09 08:10:00,45.2,42.7,29.67,SSE,157,1.0,1.0,91,0.00,,,0.07,Wunderground v.1.15,2013-03-09 14:10:00,
2013-03-09 08:20:00,45.0,42.5,29.67,SSE,157,1.0,1.0,91,0.00,,,0.08,Wunderground v.1.15,2013-03-09 14:20:00,
2013-03-09 08:25:00,45.0,42.5,29.67,SSE,157,0.0,7.0,91,0.00,,,0.08,Wunderground v.1.15,2013-03-09 14:25:00,
2013-03-09 08:30:00,45.0,42.5,29.66,SSE,157,0.0,7.0,91,0.00,,,0.08,Wunderground v.1.15,2013-03-09 14:30:00,
2013-03-09 08:40:00,44.7,42.2,29.66,SSE,157,1.0,7.0,91,0.00,,,0.09,Wunderground v.1.15,2013-03-09 14:40:00,
2013-03-09 08:50:00,44.5,42.0,29.66,SSE,157,1.0,7.0,91,0.05,,,0.10,Wunderground v.1.15,2013-03-09 14:50:00,
2013-03-09 09:00:00,44.4,41.9,29.66,SSE,157,2.0,7.0,91,0.05,,,0.10,Wunderground v.1.15,2013-03-09 15:00:00,
2013-03-09 09:10:00,44.3,41.8,29.66,SSE,157,1.0,7.0,91,0.07,,,0.12,Wunderground v.1.15,2013-03-09 15:10:00,
2013-03-09 09:20:00,44.2,41.7,29.65,SSE,157,1.0,7.0,91,0.06,,,0.13,Wunderground v.1.15,2013-03-09 15:20:00,
2013-03-09 09:25:00,43.8,41.3,29.65,SSE,157,1.0,7.0,91,0.06,,,0.13,Wunderground v.1.15,2013-03-09 15:25:00,
2013-03-09 09:35:00,43.1,40.7,29.65,SSE,157,2.0,7.0,91,0.00,,,0.13,Wunderground v.1.15,2013-03-09 15:35:00,
2013-03-09 09:40:00,42.6,40.2,29.65,SSE,157,3.0,3.0,91,0.00,,,0.13,Wunderground v.1.15,2013-03-09 15:40:00,
2013-03-09 09:50:00,42.1,39.7,29.66,SSE,156,3.0,3.0,91,0.00,,,0.14,Wunderground v.1.15,2013-03-09 15:50:00,
2013-03-09 10:00:00,41.3,38.9,29.66,North,360,4.0,7.0,91,0.00,,,0.14,Wunderground v.1.15,2013-03-09 16:00:00,
2013-03-09 10:10:00,40.3,37.9,29.66,North,350,6.0,7.0,91,0.10,,,0.16,Wunderground v.1.15,2013-03-09 16:10:00,
2013-03-09 10:20:00,40.0,37.6,29.67,North,351,5.0,7.0,91,0.04,,,0.16,Wunderground v.1.15,2013-03-09 16:20:00,
2013-03-09 10:30:00,39.6,37.2,29.66,North,360,5.0,7.0,91,0.00,,,0.16,Wunderground v.1.15,2013-03-09 16:30:00,
2013-03-09 10:35:00,39.5,37.1,29.67,North,355,5.0,7.0,91,0.00,,,0.16,Wunderground v.1.15,2013-03-09 16:35:00,
2013-03-09 10:45:00,39.5,37.1,29.67,North,355,6.0,7.0,91,0.00,,,0.16,Wunderground v.1.15,2013-03-09 16:45:00,
2013-03-09 10:50:00,39.4,37.0,29.67,NNW,347,5.0,5.0,91,0.00,,,0.16,Wunderground v.1.15,2013-03-09 16:50:00,
2013-03-09 11:00:00,39.2,36.8,29.66,North,5,9.0,12.0,91,0.00,,,0.17,Wunderground v.1.15,2013-03-09 17:00:00,
2013-03-09 11:10:00,39.0,36.6,29.66,North,350,10.0,13.0,91,0.00,,,0.17,Wunderground v.1.15,2013-03-09 17:10:00,
2013-03-09 11:20:00,38.2,35.8,29.66,North,360,12.0,14.0,91,0.00,,,0.17,Wunderground v.1.15,2013-03-09 17:20:00,
2013-03-09 11:30:00,37.8,35.4,29.66,North,5,13.0,13.0,91,0.00,,,0.17,Wunderground v.1.15,2013-03-09 17:30:00,
2013-03-09 11:35:00,37.8,35.4,29.66,North,5,12.0,13.0,91,0.00,,,0.17,Wunderground v.1.15,2013-03-09 17:35:00,
2013-03-09 11:45:00,38.0,35.6,29.66,NNE,18,8.0,10.0,91,0.00,,,0.17,Wunderground v.1.15,2013-03-09 17:45:00,
2013-03-09 11:50:00,37.8,35.4,29.66,North,355,6.0,11.0,91,0.00,,,0.17,Wunderground v.1.15,2013-03-09 17:50:00,
2013-03-09 12:00:00,37.5,35.1,29.67,North,355,6.0,9.0,91,0.00,,,0.17,Wunderground v.1.15,2013-03-09 18:00:00,
2013-03-09 12:10:00,37.3,34.9,29.66,North,360,8.0,8.0,91,0.00,,,0.17,Wunderground v.1.15,2013-03-09 18:10:00,
2013-03-09 12:20:00,37.2,34.8,29.67,North,5,8.0,8.0,91,0.00,,,0.17,Wunderground v.1.15,2013-03-09 18:20:00,
2013-03-09 12:25:00,37.2,34.8,29.66,NNE,22,8.0,8.0,91,0.00,,,0.17,Wunderground v.1.15,2013-03-09 18:25:00,
2013-03-09 12:35:00,37.0,34.6,29.66,North,5,6.0,18.0,91,0.00,,,0.17,Wunderground v.1.15,2013-03-09 18:35:00,
2013-03-09 12:40:00,37.0,34.9,29.66,NNE,13,6.0,6.0,92,0.00,,,0.17,Wunderground v.1.15,2013-03-09 18:40:00,
2013-03-09 12:50:00,36.7,34.3,29.66,North,9,7.0,18.0,91,0.00,,,0.17,Wunderground v.1.15,2013-03-09 18:50:00,
2013-03-09 13:00:00,36.5,34.1,29.67,North,350,6.0,18.0,91,0.00,,,0.17,Wunderground v.1.15,2013-03-09 19:00:00,
2013-03-09 13:10:00,36.4,34.0,29.67,North,349,10.0,18.0,91,0.00,,,0.17,Wunderground v.1.15,2013-03-09 19:10:00,
2013-03-09 13:15:00,36.3,33.9,29.66,NNE,25,9.0,18.0,91,0.00,,,0.17,Wunderground v.1.15,2013-03-09 19:15:00,
2013-03-09 13:25:00,36.1,34.0,29.66,North,360,9.0,18.0,92,0.00,,,0.17,Wunderground v.1.15,2013-03-09 19:25:00,
2013-03-09 13:30:00,36.2,33.8,29.66,North,355,8.0,18.0,91,0.00,,,0.17,Wunderground v.1.15,2013-03-09 19:30:00,
2013-03-09 13:40:00,35.7,33.3,29.66,North,5,12.0,18.0,91,0.00,,,0.17,Wunderground v.1.15,2013-03-09 19:40:00,
2013-03-09 13:50:00,35.6,33.2,29.66,North,355,13.0,13.0,91,0.00,,,0.17,Wunderground v.1.15,2013-03-09 19:50:00,
2013-03-09 14:00:00,35.1,32.7,29.67,North,355,12.0,18.0,91,0.00,,,0.17,Wunderground v.1.15,2013-03-09 20:00:00,
2013-03-09 14:10:00,35.2,32.8,29.66,North,355,14.0,18.0,91,0.00,,,0.17,Wunderground v.1.15,2013-03-09 20:10:00,
2013-03-09 14:20:00,35.2,32.8,29.66,North,9,14.0,14.0,91,0.00,,,0.17,Wunderground v.1.15,2013-03-09 20:20:00,
2013-03-09 14:25:00,35.2,33.1,29.66,NNW,348,14.0,19.0,92,0.00,,,0.17,Wunderground v.1.15,2013-03-09 20:25:00,
2013-03-09 14:35:00,35.2,32.8,29.66,North,355,14.0,18.0,91,0.00,,,0.17,Wunderground v.1.15,2013-03-09 20:35:00,
2013-03-09 14:40:00,35.3,33.2,29.66,North,355,12.0,12.0,92,0.00,,,0.17,Wunderground v.1.15,2013-03-09 20:40:00,
2013-03-09 14:50:00,35.1,32.7,29.67,North,5,13.0,21.0,91,0.00,,,0.18,Wunderground v.1.15,2013-03-09 20:50:00,
2013-03-09 15:00:00,34.6,32.2,29.68,North,355,16.0,16.0,91,0.00,,,0.18,Wunderground v.1.15,2013-03-09 21:00:00,
2013-03-09 15:10:00,34.7,32.3,29.69,North,355,12.0,18.0,91,0.00,,,0.18,Wunderground v.1.15,2013-03-09 21:10:00,
2013-03-09 15:20:00,34.0,31.6,29.69,North,355,16.0,18.0,91,0.00,,,0.18,Wunderground v.1.15,2013-03-09 21:20:00,
2013-03-09 15:25:00,34.1,31.7,29.69,North,360,16.0,18.0,91,0.00,,,0.18,Wunderground v.1.15,2013-03-09 21:25:00,
2013-03-09 15:30:00,33.6,31.3,29.70,North,350,13.0,13.0,91,0.00,,,0.18,Wunderground v.1.15,2013-03-09 21:30:00,
2013-03-09 15:40:00,33.0,30.7,29.70,North,355,13.0,18.0,91,0.00,,,0.18,Wunderground v.1.15,2013-03-09 21:40:00,
2013-03-09 15:50:00,32.4,30.1,29.70,NW,319,13.0,18.0,91,0.00,,,0.18,Wunderground v.1.15,2013-03-09 21:50:00,
2013-03-09 16:00:00,32.2,29.9,29.72,North,355,13.0,13.0,91,0.00,,,0.18,Wunderground v.1.15,2013-03-09 22:00:00,
2013-03-09 16:10:00,31.9,29.6,29.70,North,355,15.0,15.0,91,0.00,,,0.18,Wunderground v.1.15,2013-03-09 22:10:00,
2013-03-09 16:15:00,32.0,29.7,29.71,North,355,16.0,16.0,91,0.00,,,0.18,Wunderground v.1.15,2013-03-09 22:15:00,
2013-03-09 16:25:00,31.7,29.4,29.72,NNW,344,12.0,18.0,91,0.00,,,0.18,Wunderground v.1.15,2013-03-09 22:25:00,
2013-03-09 16:35:00,31.4,29.1,29.73,NNW,336,15.0,15.0,91,0.00,,,0.18,Wunderground v.1.15,2013-03-09 22:35:00,
2013-03-09 16:40:00,31.3,29.0,29.73,NNW,337,14.0,14.0,91,0.00,,,0.18,Wunderground v.1.15,2013-03-09 22:40:00,
2013-03-09 16:50:00,31.1,28.5,29.73,NNE,22,15.0,15.0,90,0.00,,,0.18,Wunderground v.1.15,2013-03-09 22:50:00,
2013-03-09 17:00:00,31.1,28.5,29.73,NNW,343,15.0,15.0,90,0.00,,,0.18,Wunderground v.1.15,2013-03-09 23:00:00,
2013-03-09 17:10:00,31.0,28.4,29.74,NNW,345,14.0,20.0,90,0.00,,,0.18,Wunderground v.1.15,2013-03-09 23:10:00,
2013-03-09 17:20:00,30.6,28.0,29.74,NNW,348,17.0,21.0,90,0.00,,,0.18,Wunderground v.1.15,2013-03-09 23:20:00,
2013-03-09 17:25:00,30.7,28.1,29.74,NNW,338,16.0,21.0,90,0.00,,,0.18,Wunderground v.1.15,2013-03-09 23:25:00,
2013-03-09 17:30:00,30.6,28.0,29.74,North,360,16.0,22.0,90,0.00,,,0.18,Wunderground v.1.15,2013-03-09 23:30:00,
2013-03-09 17:40:00,30.5,27.9,29.75,NNW,329,17.0,17.0,90,0.00,,,0.18,Wunderground v.1.15,2013-03-09 23:40:00,
2013-03-09 17:50:00,30.3,27.7,29.77,North,360,15.0,18.0,90,0.00,,,0.18,Wunderground v.1.15,2013-03-09 23:50:00,
2013-03-09 18:00:00,30.2,27.6,29.78,North,355,17.0,17.0,90,0.00,,,0.18,Wunderground v.1.15,2013-03-10 00:00:00,
2013-03-09 18:10:00,30.2,27.3,29.78,North,360,20.0,20.0,89,0.00,,,0.18,Wunderground v.1.15,2013-03-10 00:10:00,
2013-03-09 18:15:00,30.0,27.2,29.78,North,9,18.0,29.0,89,0.00,,,0.18,Wunderground v.1.15,2013-03-10 00:15:00,
2013-03-09 18:20:00,29.9,27.1,29.78,NNW,344,18.0,22.0,89,0.00,,,0.18,Wunderground v.1.15,2013-03-10 00:20:00,
2013-03-09 18:30:00,29.9,27.1,29.79,NNW,338,15.0,23.0,89,0.00,,,0.18,Wunderground v.1.15,2013-03-10 00:30:00,
2013-03-09 18:40:00,29.8,26.7,29.79,North,355,18.0,18.0,88,0.00,,,0.18,Wunderground v.1.15,2013-03-10 00:40:00,
2013-03-09 18:50:00,29.7,26.6,29.80,North,11,18.0,18.0,88,0.00,,,0.18,Wunderground v.1.15,2013-03-10 00:50:00,
2013-03-09 19:00:00,29.5,26.4,29.82,North,355,15.0,15.0,88,0.00,,,0.18,Wunderground v.1.15,2013-03-10 01:00:00,
2013-03-09 19:05:00,29.5,26.4,29.82,North,360,15.0,18.0,88,0.00,,,0.18,Wunderground v.1.15,2013-03-10 01:05:00,
2013-03-09 19:15:00,29.6,26.8,29.83,NNE,15,13.0,26.0,89,0.00,,,0.18,Wunderground v.1.15,2013-03-10 01:15:00,
2013-03-09 19:25:00,29.6,26.8,29.84,North,5,13.0,26.0,89,0.00,,,0.18,Wunderground v.1.15,2013-03-10 01:25:00,
2013-03-09 19:30:00,29.6,26.8,29.84,North,355,13.0,13.0,89,0.00,,,0.18,Wunderground v.1.15,2013-03-10 01:30:00,
2013-03-09 19:40:00,29.6,26.8,29.84,NNE,20,15.0,15.0,89,0.00,,,0.18,Wunderground v.1.15,2013-03-10 01:40:00,
2013-03-09 19:50:00,29.4,26.3,29.85,NNW,342,15.0,26.0,88,0.00,,,0.18,Wunderground v.1.15,2013-03-10 01:50:00,
2013-03-09 19:55:00,29.4,26.3,29.86,NNW,348,16.0,26.0,88,0.00,,,0.18,Wunderground v.1.15,2013-03-10 01:55:00,
2013-03-09 20:05:00,29.4,26.3,29.85,North,350,18.0,26.0,88,0.00,,,0.18,Wunderground v.1.15,2013-03-10 02:05:00,
2013-03-09 20:10:00,29.3,26.2,29.85,NNE,15,19.0,19.0,88,0.00,,,0.18,Wunderground v.1.15,2013-03-10 02:10:00,
2013-03-09 20:20:00,29.2,26.1,29.85,NNW,344,18.0,18.0,88,0.00,,,0.18,Wunderground v.1.15,2013-03-10 02:20:00,
2013-03-09 20:30:00,29.2,26.1,29.86,North,9,19.0,26.0,88,0.00,,,0.18,Wunderground v.1.15,2013-03-10 02:30:00,
2013-03-09 20:35:00,29.2,26.1,29.87,North,351,16.0,26.0,88,0.00,,,0.18,Wunderground v.1.15,2013-03-10 02:35:00,
2013-03-09 20:45:00,29.2,26.1,29.87,NNW,343,14.0,26.0,88,0.00,,,0.18,Wunderground v.1.15,2013-03-10 02:45:00,
2013-03-09 20:50:00,29.2,26.1,29.87,NNW,344,14.0,26.0,88,0.00,,,0.18,Wunderground v.1.15,2013-03-10 02:50:00,
2013-03-09 21:00:00,29.1,26.0,29.88,North,5,18.0,26.0,88,0.00,,,0.18,Wunderground v.1.15,2013-03-10 03:00:00,
2013-03-09 21:10:00,29.3,26.2,29.89,North,11,15.0,26.0,88,0.00,,,0.18,Wunderground v.1.15,2013-03-10 03:10:00,
2013-03-09 21:20:00,29.2,26.1,29.90,NNW,344,14.0,14.0,88,0.00,,,0.18,Wunderground v.1.15,2013-03-10 03:20:00,
2013-03-09 21:25:00,29.1,26.0,29.90,North,360,15.0,15.0,88,0.00,,,0.18,Wunderground v.1.15,2013-03-10 03:25:00,
2013-03-09 21:35:00,28.8,25.7,29.90,NNW,342,16.0,26.0,88,0.00,,,0.18,Wunderground v.1.15,2013-03-10 03:35:00,
2013-03-09 21:40:00,28.9,25.8,29.91,North,355,16.0,26.0,88,0.00,,,0.18,Wunderground v.1.15,2013-03-10 03:40:00,
2013-03-09 21:50:00,28.9,25.8,29.90,North,5,16.0,26.0,88,0.00,,,0.18,Wunderground v.1.15,2013-03-10 03:50:00,
2013-03-09 22:00:00,28.9,25.8,29.91,North,349,17.0,17.0,88,0.00,,,0.18,Wunderground v.1.15,2013-03-10 04:00:00,
2013-03-09 22:10:00,29.0,25.9,29.91,North,10,16.0,16.0,88,0.00,,,0.18,Wunderground v.1.15,2013-03-10 04:10:00,
2013-03-09 22:20:00,29.2,26.1,29.91,NNW,344,15.0,26.0,88,0.00,,,0.18,Wunderground v.1.15,2013-03-10 04:20:00,
2013-03-09 22:30:00,29.4,26.3,29.91,North,351,15.0,15.0,88,0.00,,,0.18,Wunderground v.1.15,2013-03-10 04:30:00,
2013-03-09 22:40:00,29.4,26.3,29.91,NNE,17,13.0,26.0,88,0.00,,,0.18,Wunderground v.1.15,2013-03-10 04:40:00,
2013-03-09 22:45:00,29.4,26.3,29.91,North,360,13.0,26.0,88,0.00,,,0.18,Wunderground v.1.15,2013-03-10 04:45:00,
2013-03-09 22:50:00,29.5,26.4,29.91,NNW,347,14.0,26.0,88,0.00,,,0.18,Wunderground v.1.15,2013-03-10 04:50:00,
2013-03-09 23:00:00,29.5,26.7,29.91,NNW,340,17.0,17.0,89,0.00,,,0.18,Wunderground v.1.15,2013-03-10 05:00:00,
2013-03-09 23:05:00,29.5,26.4,29.91,NNW,343,17.0,26.0,88,0.00,,,0.18,Wunderground v.1.15,2013-03-10 05:05:00,
2013-03-09 23:10:00,29.6,26.5,29.91,North,5,17.0,17.0,88,0.00,,,0.18,Wunderground v.1.15,2013-03-10 05:10:00,
2013-03-09 23:20:00,29.6,26.5,29.91,NNE,13,17.0,17.0,88,0.00,,,0.18,Wunderground v.1.15,2013-03-10 05:20:00,
2013-03-09 23:30:00,29.7,26.6,29.91,NNE,28,17.0,17.0,88,0.00,,,0.18,Wunderground v.1.15,2013-03-10 05:30:00,
2013-03-09 23:40:00,29.9,26.8,29.90,North,360,16.0,26.0,88,0.00,,,0.18,Wunderground v.1.15,2013-03-10 05:40:00,
2013-03-09 23:45:00,29.9,26.8,29.90,North,360,17.0,26.0,88,0.00,,,0.18,Wunderground v.1.15,2013-03-10 05:45:00,
2013-03-09 23:55:00,29.9,26.8,29.91,NNW,339,17.0,26.0,88,0.00,,,0.18,Wunderground v.1.15,2013-03-10 05:55:00,